Regional Weather Roundup
Issued by NWS

Home | Current Version | Previous Version | Graphics & Text | Print | Product List | Glossary On
Versions: 1 2 3 4 5 6 7 8 9 10 11 12 13 14 15 16 17 18 19 20 21 22 23 24 25 26 27 28 29 30 31 32 33 34 35 36 37 38 39 40 41 42 43 44 45 46 47 48 49 50
000
ASUS43 KTOP 050159
RWRKS

WEATHER ROUNDUP FOR KANSAS
NATIONAL WEATHER SERVICE GOODLAND KS
900 PM CDT FRI SEP 04 2015

NOTE:  "FAIR" INDICATES FEW OR NO CLOUDS BELOW 12,000 FEET WITH NO
SIGNIFICANT WEATHER AND/OR OBSTRUCTIONS TO VISIBILITY.

KSZ001>006-013>018-027>032-041>047-050300-
NORTHWEST KANSAS

CITY           SKY/WX    TMP DP  RH WIND       PRES   REMARKS
GOODLAND       MOCLDY    83  53  35 S13       29.88S
HAYS           CLEAR     88  61  40 SE15      29.86R
HILL CITY      PTCLDY    87  57  35 S8        29.84R
RUSSELL        CLEAR     87  61  41 SE18      29.85R
$$

KSZ061>065-074>080-084>089-050300-
SOUTHWEST KANSAS

CITY           SKY/WX    TMP DP  RH WIND       PRES   REMARKS
DODGE CITY     CLEAR     84  57  39 S20       29.91R
ELKHART          N/A     78  56  46 S7          N/A
GARDEN CITY    CLEAR     84  57  39 S14       29.88R
GREAT BEND     PTCLDY    84  61  45 SE14      29.88R
LIBERAL        FAIR      84  55  37 S13       29.92R
$$

KSZ066>073-081>083-090>101-050300-
SOUTHEAST KANSAS

CITY           SKY/WX    TMP DP  RH WIND       PRES   REMARKS
CHANUTE        CLEAR     78  71  79 SE6       29.96R
COFFEYVILLE    CLEAR     79  71  76 SE6       29.95R
HUTCHINSON     PTCLDY    82  64  54 SE12      29.90R
NEWTON         CLEAR     81  63  54 SE9       29.95R
PARSONS        CLEAR     79  72  79 CALM      29.97R
WICHITA INTL   PTCLDY    84  67  56 SE14      29.91R
WICHITA JABRA  CLEAR     82  67  60 SE12      29.92R
WINFIELD       CLEAR     83  69  62 SE8       29.94R
$$

KSZ007>012-019>026-033>040-048>060-102>105-050300-
NORTHEAST KANSAS

CITY           SKY/WX    TMP DP  RH WIND       PRES   REMARKS
CONCORDIA      CLEAR     82  66  58 SE14      29.88R
EMPORIA        CLEAR     79  69  71 SE10      29.94R
LAWRENCE       CLEAR     77  69  76 SE7       29.94R
MANHATTAN      CLEAR     82  67  60 SE5       29.90R
OLATHE IND     CLEAR     79  69  71 SE8       29.97R
OLATHE EXE     CLEAR     77  69  76 S6        29.96R
SALINA         CLEAR     85  66  53 SE12      29.88R
TOPEKA BILLARD CLEAR     81  68  64 SE8       29.93R
TOPEKA FORBES  CLEAR     81  68  64 SE8       29.94R
$$



USA.gov is the U.S. government's official web portal to all federal, state and local government web resources and services.